This is the latest recevied weather packets stored in our database for station/object DM1HF-13. If no packets are shown the sender has not sent any weather packets the latest 10 day(s).
| Time | Temp. | Humidity | Pressure | Rain* | Wind** | Luminosity | Snow |
|---|---|---|---|---|---|---|---|
| 1777817116 | 28.89° C | 23% | 1012.9 hPa | 0 mm | - | 271 W/m² | - |
| 1777816816 | 28.89° C | 23% | 1013 hPa | 0 mm | - | 279 W/m² | - |
| 1777816516 | 28.89° C | 23% | 1013.1 hPa | 0 mm | - | 301 W/m² | - |
| 1777816216 | 28.89° C | 24% | 1013.1 hPa | 0 mm | - | 313 W/m² | - |
| 1777815916 | 29.44° C | 23% | 1013.2 hPa | 0 mm | - | 273 W/m² | - |
| 1777815616 | 28.89° C | 23% | 1013.3 hPa | 0 mm | - | 306 W/m² | - |
| 1777815316 | 29.44° C | 23% | 1013.4 hPa | 0 mm | - | 276 W/m² | - |
| 1777815016 | 29.44° C | 23% | 1013.5 hPa | 0 mm | - | 360 W/m² | - |
| 1777814716 | 29.44° C | 23% | 1013.5 hPa | 0 mm | - | 355 W/m² | - |
| 1777814416 | 28.89° C | 24% | 1013.7 hPa | 0 mm | - | 422 W/m² | - |
| 1777814116 | 28.89° C | 25% | 1013.7 hPa | 0 mm | - | 473 W/m² | - |
| 1777813816 | 29.44° C | 24% | 1013.9 hPa | 0 mm | - | 380 W/m² | - |
| 1777813516 | 29.44° C | 24% | 1013.9 hPa | 0 mm | - | 311 W/m² | - |
| 1777813216 | 28.89° C | 24% | 1014 hPa | 0 mm | - | 437 W/m² | - |
| 1777812916 | 28.89° C | 24% | 1014 hPa | 0 mm | - | 415 W/m² | - |
| 1777812616 | 28.89° C | 25% | 1014.1 hPa | 0 mm | - | 332 W/m² | - |
| 1777812316 | 28.89° C | 26% | 1014 hPa | 0 mm | - | 259 W/m² | - |
| 1777812016 | 28.89° C | 26% | 1014.1 hPa | 0 mm | - | 490 W/m² | - |
| 1777811716 | 28.89° C | 25% | 1014.2 hPa | 0 mm | - | 453 W/m² | - |
| 1777811416 | 28.33° C | 25% | 1014.1 hPa | 0 mm | - | 305 W/m² | - |
| 1777811116 | 29.44° C | 24% | 1014.2 hPa | 0 mm | - | 285 W/m² | - |
| 1777810816 | 29.44° C | 26% | 1014.2 hPa | 0 mm | - | 393 W/m² | - |
| 1777810517 | 28.89° C | 25% | 1014.2 hPa | 0 mm | - | 544 W/m² | - |
| 1777810216 | 28.89° C | 26% | 1014.3 hPa | 0 mm | - | 588 W/m² | - |
| 1777809916 | 28.33° C | 26% | 1014.3 hPa | 0 mm | - | 574 W/m² | - |
* Rain latest hour (hover to see other rain measurements)
** Current wind speed in m/s (hover to see current wind gust speed)